Wind_Speed
15 11 8 22 24 8 12 6 12 8 20 15 5 20 24 17 20 21 22 17 27 21 14 15 12 10 16 16 9 4 7 12 12 12 11 8 6 4 1 0 3 11 4 3
13 9 18 5 9 3 8 6 10 17 19 13 11 9 17 18 16 20 19 21 25 24 15 9 12 10 7 11 12 2 6 13 12 11 12 11 9 7 5 4 4 2 1 3
15 9 19 13 12 9 5 19 3 8 19 6 13 12 10 22 14 12 17 20 24 26 18 11 8 7 8 12 12 2 1 9 9 11 10 12 12 11 10 6 8 8 8 6
16 25 23 21 19 9 15 22 21 12 14 8 8 15 11 3 22 9 12 19 21 26 15 11 10 8 7 11 7 5 4 9 9 9 9 10 12 14 13 18 14 11 10 11
14 20 18 18 13 11 14 12 10 10 12 10 21 16 16 16 20 12 28 30 24 27 13 11 11 11 7 8 3 5 7 5 8 6 7 9 14 16 16 20 20 13 13 14
23 30 20 24 15 21 16 18 10 8 8 18 1 14 14 17 17 28 29 27 25 30 17 9 9 12 5 1 5 6 5 7 7 4 2 4 9 13 16 16 20 19 19 18
26 26 20 20 14 20 18 15 5 18 17 13 5 4 17 27 24 25 22 23 24 26 14 9 7 9 5 2 4 5 6 3 3 6 7 8 9 7 5 11 11 15 16 13
22 24 28 20 32 16 19 17 13 18 12 21 12 6 21 21 25 25 22 24 22 21 17 5 4 6 7 3 3 3 3 4 6 8 10 11 12 11 9 8 9 6 8 9
15 19 19 22 22 27 21 8 9 19 19 17 16 22 26 29 30 22 24 21 20 18 19 7 2 6 6 6 4 2 5 5 6 8 9 13 14 13 9 6 4 4 9 12
18 16 18 22 21 21 26 19 12 13 10 9 20 28 25 22 20 20 21 21 17 18 14 11 4 6 7 3 5 6 6 7 8 11 11 12 12 10 7 7 9 9 10 11
22 16 11 19 25 21 23 19 16 15 16 16 29 26 24 23 24 18 22 23 17 14 15 8 4 7 5 5 8 9 9 11 12 13 11 10 11 10 10 9 10 11 12 13
26 16 12 19 18 21 19 18 11 14 6 18 25 26 29 18 16 24 22 20 18 11 13 8 4 4 10 10 9 10 11 12 13 14 15 13 13 12 13 15 15 15 15 16
22 24 18 20 15 17 21 20 16 21 18 27 34 37 37 12 15 14 19 24 20 14 13 12 7 7 7 9 10 11 13 15 16 16 18 18 16 15 16 17 17 18 19 21
25 30 21 17 15 17 18 24 24 17 13 22 26 22 29 2 9 17 19 25 16 14 10 9 7 7 9 10 12 15 17 17 18 18 18 17 17 18 19 20 21 21 22 24
24 29 27 20 25 23 20 18 12 13 19 19 18 31 21 8 6 27 24 25 18 16 14 12 8 10 11 13 15 17 19 21 20 20 20 19 18 18 19 21 21 22 24 26
23 29 33 24 14 21 22 25 22 18 18 19 12 27 25 28 34 34 29 27 19 13 12 12 14 14 14 18 20 20 19 19 21 21 21 20 19 19 20 21 21 23 25 28
23 27 41 31 23 19 20 19 18 20 17 16 15 25 37 40 36 27 31 22 20 15 15 13 15 18 20 23 24 25 23 20 20 20 20 20 20 20 21 23 23 26 28 31
21 27 31 30 26 28 22 26 22 27 20 20 22 40 38 39 24 22 25 28 21 17 16 17 18 21 25 27 27 27 27 25 22 21 21 21 21 21 22 23 25 28 31 31
15 18 22 20 22 24 26 33 33 32 29 27 25 45 40 32 25 24 25 32 24 20 21 22 23 24 25 26 28 26 26 25 23 22 22 22 21 22 23 25 28 29 28 29
24 29 29 32 30 36 36 41 41 38 34 42 10 10 34 39 36 32 31 32 29 25 23 24 25 23 24 23 22 21 20 19 20 21 21 21 22 23 25 27 27 28 31 32
28 27 36 39 31 35 37 31 29 35 36 43 30 38 34 35 35 34 31 27 29 28 26 27 27 25 23 24 23 22 21 21 21 21 22 21 23 24 25 26 29 32 34 34
37 33 10 18 21 18 28 22 32 22 25 27 13 26 30 34 34 33 30 24 27 28 27 29 28 28 25 26 25 25 24 24 22 22 22 23 23 24 27 30 32 33 33 34
33 29 37 18 24 26 30 24 7 24 22 17 26 28 31 31 31 29 26 27 28 30 30 31 30 29 28 28 28 27 26 26 22 23 23 22 24 26 27 27 29 32 33 34
25 27 35 10 39 31 33 29 39 34 39 31 25 25 25 27 28 28 28 29 32 34 35 36 35 31 30 30 31 29 27 25 24 24 23 23 25 25 25 27 29 30 32 32
30 17 26 29 31 36 29 32 41 26 31 35 32 31 30 30 28 28 28 29 31 33 35 35 35 33 30 31 30 27 26 25 26 25 25 26 26 27 27 29 32 33 34 35
24 18 24 31 22 24 31 28 25 27 31 31 33 34 36 35 35 34 32 32 31 31 31 32 33 32 32 29 28 28 27 28 27 27 28 28 29 28 29 31 32 34 36 38
Wind_Direction
165 127 161 235 259 183 306 340 48 290 286 311 64 327 321 343 337 353 14 11 356 4 9 355 353 13 24 18 6 267 239 226 203 200 217 230 257 305 47 239 330 74 108 90
191 155 234 253 254 283 349 353 249 240 272 304 239 147 269 335 329 343 355 356 352 348 355 342 355 359 322 47 48 274 206 206 206 201 208 223 238 246 235 230 275 322 91 199
196 185 263 266 239 250 231 250 343 316 288 272 334 312 278 333 326 339 351 345 343 344 333 327 307 317 352 21 34 6 211 195 198 201 215 225 234 240 253 262 256 253 246 236
222 243 201 245 244 222 257 251 257 272 267 323 320 304 299 322 323 322 338 340 347 348 340 314 291 285 306 341 3 358 191 195 202 221 233 239 249 245 240 244 237 224 247 253
219 234 282 238 240 207 259 302 254 250 269 292 288 301 7 300 304 93 337 336 333 344 337 307 274 266 294 321 14 20 87 128 192 215 250 271 266 256 247 262 273 260 257 250
198 224 230 245 246 226 234 257 271 281 280 274 91 3 317 309 345 351 324 328 336 339 340 315 267 245 274 335 33 28 50 78 97 96 7 311 310 273 254 258 262 257 254 261
217 235 211 245 243 255 232 258 233 242 256 257 65 45 269 284 308 318 331 335 335 343 347 334 214 213 248 224 21 5 16 0 11 344 341 338 338 342 280 265 272 254 259 259
230 228 212 229 226 220 245 241 233 249 322 323 318 304 243 290 302 311 326 331 343 347 1 20 118 199 243 236 278 323 305 0 357 346 335 323 320 322 318 258 270 272 264 279
226 249 234 246 240 200 215 238 235 283 314 303 242 230 256 275 291 287 317 335 342 349 355 2 258 245 243 249 294 302 303 319 329 331 330 324 323 327 336 296 294 275 283 292
198 236 249 247 233 224 189 226 242 249 271 252 273 270 276 264 287 300 319 339 343 339 340 3 243 230 242 239 312 319 298 313 329 330 325 320 321 325 320 288 291 294 293 295
198 215 235 226 236 212 194 218 231 228 233 265 258 276 280 295 283 305 335 344 341 337 334 340 327 242 257 259 290 299 305 319 322 319 313 306 305 309 302 292 290 290 289 288
212 204 218 235 227 209 221 228 235 243 276 281 270 284 278 233 271 323 338 343 332 328 334 318 294 278 244 262 279 293 304 302 308 312 310 299 288 287 288 290 290 288 287 288
217 191 199 218 229 220 214 238 243 235 251 265 272 281 275 166 183 322 333 329 319 308 321 327 282 275 275 275 289 289 281 286 295 298 300 299 289 283 282 280 280 285 290 292
214 186 199 222 230 240 220 242 230 227 241 285 303 323 299 228 263 330 340 332 302 298 319 331 313 294 289 286 280 279 281 283 289 290 293 298 298 293 289 286 287 289 291 293
215 200 184 234 196 201 229 248 210 236 240 256 295 301 300 227 312 310 314 320 312 281 294 307 310 287 279 286 294 297 285 275 271 272 275 279 282 284 281 279 281 286 288 290
211 203 189 205 249 202 214 219 196 238 243 262 263 292 292 282 286 293 293 304 324 306 292 285 290 294 287 284 286 289 291 287 277 273 273 274 278 280 282 286 288 292 296 299
212 205 200 202 195 239 227 223 235 237 243 265 265 261 273 279 283 280 297 298 311 318 308 290 291 301 305 296 288 287 285 286 287 285 285 286 288 289 292 293 297 298 301 301
213 206 205 210 224 223 222 226 237 240 235 231 252 250 245 257 279 296 295 296 308 307 304 302 299 301 303 299 293 287 287 286 285 284 286 285 284 287 289 293 298 299 299 297
200 225 212 217 231 234 227 231 229 225 234 226 225 247 254 241 283 282 291 291 300 294 306 307 303 302 301 301 298 295 291 288 280 281 283 285 287 289 293 298 299 298 298 298
193 216 214 207 223 230 226 219 229 230 232 233 200 215 251 271 278 292 295 298 299 296 302 301 301 306 301 303 303 300 297 289 281 282 283 285 288 293 299 299 298 299 299 298
215 215 227 236 218 240 243 259 289 243 231 240 235 244 254 265 274 282 287 293 294 296 298 297 298 300 295 296 299 298 296 293 289 286 284 287 293 298 298 298 298 297 296 297
208 217 218 242 262 245 256 267 232 245 259 250 243 245 262 269 276 282 289 288 288 294 295 293 293 292 291 290 292 292 292 291 288 285 289 294 296 298 297 297 299 299 298 297
226 216 226 209 233 230 249 247 233 253 222 312 273 269 270 273 278 282 281 282 285 286 289 291 290 290 289 290 290 290 290 287 284 286 290 292 297 298 300 305 306 305 304 303
238 236 224 220 233 237 240 247 262 262 268 287 282 274 275 279 284 285 284 284 282 281 282 288 290 287 285 290 292 288 285 282 283 286 287 292 297 299 301 307 316 318 314 310
227 276 230 230 236 236 226 247 246 257 265 276 282 282 282 283 284 284 287 287 281 278 278 281 282 282 282 285 287 284 282 282 285 283 285 288 292 299 304 307 314 320 326 321
310 267 267 241 218 238 256 259 260 261 263 267 274 280 284 285 287 287 287 285 282 279 278 279 278 279 280 279 279 279 279 283 281 281 286 286 290 295 302 309 316 316 316 318
Height
5918 5920 5925 5924 5925 5922 5928 5931 5930 5938 5929 5927 5928 5917 5916 5918 5919 5916 5913 5912 5905 5904 5902 5895 5891 5892 5887 5886 5889 5892 5896 5899 5901 5904 5906 5908 5907 5908 5912 5913 5911 5903 5914 5913
5918 5919 5924 5921 5921 5928 5929 5932 5935 5928 5929 5929 5923 5923 5921 5921 5919 5916 5913 5910 5907 5902 5904 5903 5898 5896 5892 5884 5889 5896 5895 5897 5900 5902 5904 5905 5907 5909 5911 5914 5912 5911 5911 5915
5915 5922 5927 5926 5926 5928 5932 5931 5928 5931 5927 5928 5923 5921 5922 5920 5919 5918 5915 5912 5907 5903 5902 5901 5901 5902 5892 5875 5893 5897 5896 5897 5899 5901 5902 5904 5905 5907 5910 5913 5911 5913 5914 5913
5916 5916 5915 5924 5925 5929 5931 5929 5929 5929 5928 5927 5925 5923 5922 5922 5922 5917 5918 5915 5909 5904 5900 5898 5899 5900 5899 5897 5898 5896 5894 5897 5898 5900 5902 5902 5903 5905 5908 5903 5888 5906 5911 5912
5914 5915 5913 5921 5924 5925 5927 5923 5925 5928 5926 5925 5922 5916 5905 5915 5915 5907 5917 5914 5909 5904 5900 5898 5898 5898 5899 5898 5898 5898 5897 5897 5898 5900 5901 5902 5903 5902 5904 5900 5896 5906 5895 5905
5908 5910 5919 5919 5921 5922 5925 5924 5923 5925 5927 5923 5912 5921 5915 5913 5908 5901 5918 5913 5908 5902 5897 5896 5897 5898 5901 5900 5901 5901 5900 5900 5900 5901 5902 5901 5900 5899 5899 5901 5901 5903 5903 5906
5904 5906 5911 5917 5917 5918 5920 5921 5924 5925 5924 5922 5921 5923 5919 5916 5919 5918 5916 5912 5907 5903 5896 5893 5894 5898 5901 5901 5902 5902 5902 5902 5901 5901 5901 5900 5899 5897 5896 5897 5896 5898 5900 5903
5900 5905 5907 5911 5912 5917 5919 5920 5923 5920 5922 5917 5923 5923 5917 5917 5917 5916 5914 5910 5906 5902 5898 5896 5896 5899 5900 5901 5901 5902 5902 5902 5902 5901 5901 5899 5898 5897 5896 5894 5896 5898 5899 5901
5902 5903 5905 5905 5908 5910 5916 5916 5921 5920 5920 5925 5920 5917 5914 5915 5914 5913 5911 5907 5904 5902 5899 5897 5897 5899 5900 5901 5901 5902 5902 5901 5900 5899 5898 5897 5896 5895 5895 5895 5895 5897 5898 5898
5898 5904 5906 5906 5905 5905 5908 5917 5918 5923 5923 5923 5919 5913 5912 5914 5915 5913 5910 5904 5901 5901 5899 5898 5897 5898 5899 5900 5901 5900 5901 5899 5898 5898 5897 5895 5895 5894 5894 5895 5895 5896 5897 5896
5893 5900 5905 5904 5900 5904 5906 5910 5913 5917 5919 5920 5913 5908 5910 5907 5909 5908 5904 5900 5900 5900 5898 5897 5896 5897 5898 5898 5899 5900 5898 5897 5896 5896 5895 5894 5893 5893 5894 5894 5894 5894 5894 5894
5888 5894 5900 5901 5901 5904 5907 5910 5912 5915 5916 5915 5910 5906 5899 5895 5880 5894 5898 5897 5898 5898 5898 5896 5895 5895 5896 5897 5897 5897 5896 5894 5893 5893 5892 5891 5891 5891 5891 5891 5891 5891 5891 5890
5884 5889 5894 5897 5900 5900 5902 5905 5908 5912 5913 5907 5905 5901 5899 5881 5891 5900 5898 5896 5896 5896 5895 5894 5893 5893 5893 5894 5894 5893 5892 5892 5892 5891 5889 5888 5887 5887 5888 5888 5888 5887 5886 5885
5879 5885 5889 5895 5899 5900 5900 5902 5904 5906 5910 5904 5894 5894 5889 5878 5891 5894 5896 5895 5893 5892 5892 5892 5892 5891 5890 5891 5890 5890 5889 5888 5887 5887 5886 5885 5884 5884 5884 5884 5883 5882 5881 5880
5874 5879 5885 5891 5888 5890 5901 5899 5900 5904 5907 5906 5904 5893 5890 5863 5879 5889 5893 5894 5891 5889 5889 5889 5888 5888 5889 5888 5887 5886 5885 5884 5884 5883 5882 5881 5880 5879 5879 5878 5877 5876 5875 5874
5869 5874 5879 5884 5883 5889 5889 5896 5894 5902 5903 5903 5903 5892 5888 5889 5886 5888 5890 5892 5889 5886 5885 5885 5885 5884 5884 5884 5883 5882 5881 5880 5878 5877 5876 5876 5875 5875 5874 5873 5872 5871 5869 5867
5865 5869 5873 5876 5882 5888 5889 5893 5895 5897 5898 5901 5902 5899 5891 5884 5887 5887 5882 5888 5885 5883 5882 5881 5880 5880 5879 5878 5877 5876 5875 5874 5873 5872 5871 5870 5869 5868 5867 5866 5865 5863 5862 5860
5862 5865 5869 5874 5878 5878 5887 5883 5885 5886 5890 5893 5897 5882 5883 5884 5882 5882 5879 5878 5881 5879 5878 5877 5876 5875 5873 5871 5870 5869 5868 5867 5866 5866 5866 5865 5864 5863 5862 5861 5860 5858 5857 5854
5859 5864 5867 5871 5873 5876 5878 5877 5878 5878 5886 5886 5879 5870 5860 5874 5880 5877 5878 5874 5874 5874 5873 5872 5870 5869 5868 5866 5863 5862 5861 5860 5860 5860 5859 5858 5858 5857 5855 5854 5853 5850 5848 5846
5854 5856 5861 5860 5862 5860 5864 5864 5873 5871 5876 5874 5869 5849 5865 5863 5872 5874 5871 5868 5866 5866 5866 5865 5863 5863 5861 5859 5858 5856 5855 5854 5854 5854 5853 5852 5851 5850 5848 5846 5844 5842 5840 5838
5842 5845 5842 5847 5853 5853 5857 5857 5856 5861 5867 5867 5866 5864 5867 5867 5867 5867 5865 5864 5861 5860 5860 5858 5857 5856 5856 5853 5853 5851 5850 5849 5848 5847 5847 5846 5844 5842 5841 5839 5836 5835 5833 5830
5842 5840 5841 5849 5846 5845 5847 5849 5849 5850 5850 5853 5856 5861 5863 5862 5861 5859 5858 5857 5855 5854 5854 5851 5851 5850 5850 5848 5846 5845 5844 5843 5842 5841 5840 5839 5837 5835 5834 5832 5829 5826 5823 5820
5831 5838 5841 5840 5841 5840 5842 5848 5831 5837 5833 5843 5851 5852 5852 5853 5853 5852 5852 5850 5849 5848 5847 5845 5844 5843 5842 5841 5839 5838 5837 5835 5835 5834 5833 5832 5830 5829 5826 5824 5821 5818 5814 5810
5821 5824 5831 5820 5834 5837 5840 5843 5843 5845 5841 5841 5844 5844 5844 5843 5844 5844 5843 5843 5841 5840 5839 5837 5836 5835 5834 5833 5831 5830 5829 5828 5828 5826 5825 5824 5823 5821 5819 5817 5814 5809 5804 5801
5822 5821 5825 5829 5827 5825 5829 5831 5838 5838 5838 5835 5834 5833 5833 5835 5836 5836 5835 5834 5833 5832 5830 5829 5827 5827 5826 5825 5824 5823 5821 5820 5819 5818 5817 5816 5816 5814 5811 5808 5804 5800 5796 5792
5809 5817 5817 5819 5812 5824 5826 5826 5829 5831 5831 5831 5829 5828 5828 5828 5827 5827 5827 5825 5824 5823 5821 5820 5818 5818 5817 5817 5816 5815 5814 5813 5812 5811 5810 5808 5807 5805 5803 5799 5796 5792 5788 5784